When you browse on this site, cookies collect data to enhance your experience and personalize the content and advertising you see.
Visit our Privacy Policy to learn more. By continuing to use the site, you agree to this use of cookies and data.
  • In France
  • List of Countries
  • For 7 days
  • Water Temperature
  • Weather Map
  • Weather Widgets
  • user-avatar
    Login

    Hourly Weather Bafatá

    Today, 27 May, Wednesday

    Time Temperature Precipitation Wind Pressure Humidity
    00:00 +27°C° 0 mm 2 mps 757 mmHg 71%
    01:00 +27°C° 0 mm 2 mps 756 mmHg 72%
    02:00 +27°C° 0 mm 2 mps 756 mmHg 73%
    03:00 +26°C° 0 mm 2 mps 757 mmHg 75%
    04:00 +26°C° 0 mm 2 mps 757 mmHg 78%
    05:00 +26°C° 0 mm 1 mps 757 mmHg 81%
    06:00 +27°C° 0 mm 1 mps 757 mmHg 74%
    07:00 +29°C° 0 mm 2 mps 757 mmHg 67%
    08:00 +30°C° 0 mm 2 mps 758 mmHg 59%
    09:00 +34°C° 0 mm 2 mps 758 mmHg 51%
    10:00 +36°C° 0 mm 2 mps 758 mmHg 42%
    11:00 +38°C° 0 mm 2 mps 757 mmHg 33%
    12:00 +39°C° 0 mm 2 mps 757 mmHg 30%
    13:00 +41°C° 0 mm 2 mps 756 mmHg 27%
    14:00 +42°C° 0 mm 2 mps 755 mmHg 24%
    15:00 +42°C° 0 mm 3 mps 755 mmHg 26%
    16:00 +40°C° 0 mm 3 mps 755 mmHg 27%
    17:00 +40°C° 0 mm 4 mps 755 mmHg 29%
    18:00 +37°C° 0 mm 4 mps 755 mmHg 35%
    19:00 +35°C° 0 mm 3 mps 756 mmHg 40%
    20:00 +31°C° 0 mm 3 mps 757 mmHg 46%
    21:00 +30°C° 0 mm 3 mps 757 mmHg 52%
    22:00 +29°C° 0 mm 3 mps 757 mmHg 57%
    23:00 +29°C° 0 mm 3 mps 758 mmHg 63%

    Tomorrow, 28 May, Thursday

    Time Temperature Precipitation Wind Pressure Humidity
    00:00 +28°C° 0 mm 2 mps 757 mmHg 65%
    01:00 +28°C° 0 mm 2 mps 757 mmHg 68%
    02:00 +28°C° 0 mm 1 mps 757 mmHg 70%
    03:00 +28°C° 0 mm 1 mps 757 mmHg 72%
    04:00 +27°C° 0 mm 1 mps 757 mmHg 74%
    05:00 +27°C° 0 mm 1 mps 757 mmHg 76%
    06:00 +28°C° 0 mm 2 mps 757 mmHg 73%
    07:00 +29°C° 0 mm 2 mps 758 mmHg 70%
    08:00 +30°C° 0 mm 2 mps 758 mmHg 67%
    09:00 +32°C° 0 mm 2 mps 758 mmHg 57%
    10:00 +36°C° 0 mm 2 mps 757 mmHg 48%
    11:00 +38°C° 0 mm 3 mps 757 mmHg 39%
    12:00 +39°C° 0 mm 2 mps 756 mmHg 35%
    13:00 +41°C° 0 mm 2 mps 756 mmHg 31%
    14:00 +42°C° 0 mm 2 mps 755 mmHg 26%
    15:00 +42°C° 0 mm 3 mps 754 mmHg 28%
    16:00 +42°C° 0 mm 3 mps 754 mmHg 29%
    17:00 +40°C° 0 mm 3 mps 754 mmHg 30%
    18:00 +37°C° 0 mm 3 mps 755 mmHg 42%
    19:00 +34°C° 0 mm 4 mps 755 mmHg 53%
    20:00 +30°C° 0 mm 4 mps 756 mmHg 64%
    21:00 +29°C° 0 mm 4 mps 756 mmHg 69%
    22:00 +29°C° 0 mm 3 mps 757 mmHg 74%
    23:00 +28°C° 0 mm 3 mps 757 mmHg 78%

    Day after tomorrow, 29 May, Friday

    Time Temperature Precipitation Wind Pressure Humidity
    00:00 +28°C° 0 mm 2 mps 757 mmHg 81%
    01:00 +27°C° 0 mm 2 mps 757 mmHg 83%
    02:00 +27°C° 0 mm 2 mps 756 mmHg 86%
    03:00 +26°C° 0 mm 1 mps 756 mmHg 87%
    04:00 +26°C° 0 mm 1 mps 756 mmHg 89%
    05:00 +26°C° 0 mm 1 mps 756 mmHg 90%
    06:00 +27°C° 0 mm 1 mps 757 mmHg 81%
    07:00 +29°C° 0 mm 1 mps 757 mmHg 72%
    08:00 +31°C° 0 mm 1 mps 757 mmHg 62%
    09:00 +35°C° 0 mm 2 mps 757 mmHg 53%
    10:00 +37°C° 0 mm 2 mps 757 mmHg 44%
    11:00 +40°C° 0 mm 2 mps 756 mmHg 35%
    12:00 +42°C° 0 mm 1 mps 755 mmHg 31%
    13:00 +44°C° 0 mm 1 mps 754 mmHg 26%
    14:00 +44°C° 0 mm 0 mps 753 mmHg 22%
    15:00 +42°C° 0 mm 0 mps 753 mmHg 23%
    16:00 +43°C° 0 mm 1 mps 753 mmHg 25%
    17:00 +42°C° 0 mm 1 mps 752 mmHg 27%
    18:00 +39°C° 0.2 mm 2 mps 753 mmHg 34%
    19:00 +36°C° 0.2 mm 3 mps 754 mmHg 42%
    20:00 +33°C° 0.2 mm 4 mps 755 mmHg 50%
    21:00 +31°C° 0.2 mm 3 mps 755 mmHg 54%
    22:00 +30°C° 0.2 mm 3 mps 756 mmHg 59%
    23:00 +28°C° 0.2 mm 2 mps 757 mmHg 63%

    30 May, Saturday

    Time Temperature Precipitation Wind Pressure Humidity
    00:00 +28°C° 0 mm 2 mps 756 mmHg 66%
    01:00 +28°C° 0 mm 2 mps 756 mmHg 68%
    02:00 +27°C° 0 mm 2 mps 755 mmHg 70%
    03:00 +27°C° 0 mm 1 mps 755 mmHg 70%
    04:00 +27°C° 0 mm 1 mps 755 mmHg 70%
    05:00 +27°C° 0 mm 1 mps 756 mmHg 70%
    06:00 +28°C° 0 mm 1 mps 756 mmHg 65%
    07:00 +29°C° 0 mm 1 mps 756 mmHg 60%
    08:00 +31°C° 0 mm 1 mps 757 mmHg 55%
    09:00 +32°C° 0 mm 1 mps 756 mmHg 52%
    10:00 +33°C° 0 mm 1 mps 756 mmHg 49%
    11:00 +34°C° 0 mm 1 mps 755 mmHg 46%
    12:00 +36°C° 0 mm 1 mps 755 mmHg 41%
    13:00 +39°C° 0 mm 1 mps 754 mmHg 36%
    14:00 +41°C° 0 mm 1 mps 753 mmHg 32%
    15:00 +40°C° 0 mm 1 mps 753 mmHg 31%
    16:00 +40°C° 0 mm 1 mps 753 mmHg 30%
    17:00 +40°C° 0 mm 2 mps 752 mmHg 29%
    18:00 +37°C° 0.2 mm 3 mps 753 mmHg 43%
    19:00 +34°C° 0.2 mm 4 mps 755 mmHg 56%
    20:00 +30°C° 0.2 mm 5 mps 756 mmHg 70%
    21:00 +29°C° 0.1 mm 4 mps 756 mmHg 70%
    22:00 +29°C° 0.1 mm 4 mps 757 mmHg 69%
    23:00 +29°C° 0.1 mm 3 mps 757 mmHg 69%

    31 May, Sunday

    Time Temperature Precipitation Wind Pressure Humidity
    00:00 +28°C° 0.1 mm 3 mps 757 mmHg 69%
    01:00 +28°C° 0.1 mm 2 mps 757 mmHg 68%
    02:00 +28°C° 0.1 mm 2 mps 756 mmHg 67%
    03:00 +28°C° 0.1 mm 1 mps 756 mmHg 69%
    04:00 +28°C° 0.1 mm 1 mps 756 mmHg 72%
    05:00 +25°C° 0.1 mm 0 mps 756 mmHg 75%
    06:00 +26°C° 0 mm 0 mps 756 mmHg 72%
    07:00 +29°C° 0 mm 1 mps 756 mmHg 70%
    08:00 +29°C° 0 mm 1 mps 757 mmHg 67%
    09:00 +30°C° 0 mm 1 mps 757 mmHg 64%
    10:00 +31°C° 0 mm 1 mps 757 mmHg 60%
    11:00 +32°C° 0 mm 1 mps 757 mmHg 56%
    12:00 +34°C° 0 mm 1 mps 756 mmHg 48%
    13:00 +37°C° 0 mm 1 mps 756 mmHg 40%
    14:00 +41°C° 0 mm 1 mps 755 mmHg 32%
    15:00 +40°C° 0 mm 1 mps 755 mmHg 33%
    16:00 +39°C° 0 mm 2 mps 755 mmHg 35%
    17:00 +38°C° 0 mm 2 mps 755 mmHg 36%
    18:00 +36°C° 0 mm 2 mps 756 mmHg 45%
    19:00 +32°C° 0 mm 2 mps 756 mmHg 54%
    20:00 +30°C° 0 mm 3 mps 757 mmHg 62%
    21:00 +30°C° 0 mm 3 mps 757 mmHg 62%
    22:00 +30°C° 0 mm 3 mps 757 mmHg 62%
    23:00 +29°C° 0 mm 3 mps 758 mmHg 61%

    1 June, Monday

    Time Temperature Precipitation Wind Pressure Humidity
    00:00 +29°C° 0 mm 2 mps 758 mmHg 62%
    01:00 +28°C° 0 mm 2 mps 757 mmHg 63%
    02:00 +28°C° 0 mm 1 mps 757 mmHg 63%
    03:00 +28°C° 0 mm 2 mps 757 mmHg 65%
    04:00 +28°C° 0 mm 2 mps 758 mmHg 66%
    05:00 +28°C° 0 mm 3 mps 758 mmHg 68%
    06:00 +28°C° 0 mm 3 mps 758 mmHg 67%
    07:00 +29°C° 0 mm 2 mps 758 mmHg 66%
    08:00 +29°C° 0 mm 2 mps 759 mmHg 65%
    09:00 +30°C° 0 mm 2 mps 759 mmHg 61%
    10:00 +31°C° 0 mm 2 mps 759 mmHg 57%
    11:00 +31°C° 0 mm 2 mps 759 mmHg 53%
    12:00 +32°C° 0 mm 1 mps 758 mmHg 46%
    13:00 +34°C° 0 mm 1 mps 757 mmHg 40%
    14:00 +35°C° 0 mm 1 mps 757 mmHg 34%
    15:00 +35°C° 0 mm 1 mps 756 mmHg 32%
    16:00 +37°C° 0 mm 2 mps 756 mmHg 30%
    17:00 +37°C° 0 mm 2 mps 756 mmHg 28%
    18:00 +35°C° 0 mm 2 mps 756 mmHg 32%
    19:00 +34°C° 0 mm 2 mps 756 mmHg 36%
    20:00 +31°C° 0 mm 2 mps 757 mmHg 40%
    21:00 +31°C° 0 mm 2 mps 757 mmHg 41%
    22:00 +30°C° 0 mm 3 mps 757 mmHg 42%
    23:00 +30°C° 0 mm 3 mps 757 mmHg 42%
    Show more